EN

Hourly Weather Ozolnieki

Today, 5 March, Friday

Time Temperature Precipitation Wind Pressure Humidity
00:00 -2°C° 0 mm 3 mps 758 mmHg 74%
01:00 -3°C° 0 mm 4 mps 759 mmHg 72%
02:00 -3°C° 0 mm 4 mps 759 mmHg 71%
03:00 -4°C° 0 mm 4 mps 759 mmHg 68%
04:00 -4°C° 0 mm 4 mps 759 mmHg 65%
05:00 -4°C° 0 mm 4 mps 759 mmHg 63%
06:00 -4°C° 0 mm 4 mps 760 mmHg 58%
07:00 -4°C° 0 mm 4 mps 760 mmHg 54%
08:00 -4°C° 0 mm 3 mps 760 mmHg 50%
09:00 -4°C° 0 mm 3 mps 761 mmHg 46%
10:00 -2°C° 0 mm 3 mps 761 mmHg 42%
11:00 -1°C° 0 mm 3 mps 761 mmHg 38%
12:00 -1°C° 0 mm 3 mps 761 mmHg 44%
13:00 -1°C° 0 mm 3 mps 761 mmHg 50%
14:00 -1°C° 0 mm 3 mps 761 mmHg 56%
15:00 -1°C° 0.3 mm 3 mps 761 mmHg 61%
16:00 -1°C° 0.3 mm 3 mps 762 mmHg 65%
17:00 -1°C° 0.3 mm 3 mps 762 mmHg 69%
18:00 -2°C° 0.1 mm 3 mps 762 mmHg 74%
19:00 -4°C° 0.1 mm 3 mps 762 mmHg 79%
20:00 -4°C° 0.1 mm 2 mps 763 mmHg 83%
21:00 -4°C° 0 mm 2 mps 763 mmHg 80%
22:00 -5°C° 0 mm 3 mps 764 mmHg 77%
23:00 -5°C° 0 mm 3 mps 765 mmHg 74%

Tomorrow, 6 March, Saturday

Time Temperature Precipitation Wind Pressure Humidity
00:00 -4°C° 0 mm 2 mps 765 mmHg 72%
01:00 -4°C° 0 mm 2 mps 766 mmHg 69%
02:00 -5°C° 0 mm 2 mps 766 mmHg 67%
03:00 -5°C° 0 mm 2 mps 766 mmHg 68%
04:00 -5°C° 0 mm 2 mps 766 mmHg 68%
05:00 -6°C° 0 mm 3 mps 766 mmHg 69%
06:00 -6°C° 0 mm 3 mps 766 mmHg 69%
07:00 -6°C° 0 mm 3 mps 766 mmHg 68%
08:00 -6°C° 0 mm 3 mps 766 mmHg 67%
09:00 -4°C° 0 mm 3 mps 766 mmHg 61%
10:00 -3°C° 0 mm 4 mps 765 mmHg 55%
11:00 -1°C° 0 mm 5 mps 765 mmHg 49%
12:00 0°C° 0 mm 5 mps 764 mmHg 49%
13:00 +1°C° 0 mm 6 mps 764 mmHg 48%
14:00 +2°C° 0 mm 6 mps 763 mmHg 47%
15:00 +1°C° 0 mm 6 mps 762 mmHg 48%
16:00 +1°C° 0 mm 6 mps 761 mmHg 49%
17:00 -1°C° 0 mm 6 mps 760 mmHg 50%
18:00 -1°C° 0 mm 6 mps 759 mmHg 60%
19:00 -2°C° 0 mm 7 mps 758 mmHg 69%
20:00 -2°C° 0 mm 7 mps 757 mmHg 79%
21:00 -2°C° 0 mm 7 mps 756 mmHg 79%
22:00 -1°C° 0 mm 7 mps 755 mmHg 79%
23:00 -1°C° 0 mm 7 mps 754 mmHg 80%

Day after tomorrow, 7 March, Sunday

Time Temperature Precipitation Wind Pressure Humidity
00:00 -2°C° 0.3 mm 7 mps 753 mmHg 84%
01:00 -2°C° 0.3 mm 7 mps 753 mmHg 88%
02:00 -3°C° 0.3 mm 7 mps 753 mmHg 93%
03:00 -3°C° 0.3 mm 7 mps 753 mmHg 81%
04:00 -4°C° 0.3 mm 7 mps 753 mmHg 68%
05:00 -4°C° 0.3 mm 7 mps 753 mmHg 56%
06:00 -5°C° 0 mm 6 mps 754 mmHg 53%
07:00 -5°C° 0 mm 6 mps 754 mmHg 50%
08:00 -6°C° 0 mm 5 mps 754 mmHg 47%
09:00 -5°C° 0 mm 6 mps 754 mmHg 46%
10:00 -4°C° 0 mm 7 mps 754 mmHg 46%
11:00 -3°C° 0 mm 9 mps 754 mmHg 45%
12:00 -2°C° 0 mm 8 mps 754 mmHg 44%
13:00 -2°C° 0 mm 8 mps 753 mmHg 44%
14:00 -2°C° 0 mm 8 mps 753 mmHg 44%
15:00 -2°C° 0 mm 8 mps 753 mmHg 46%
16:00 -2°C° 0 mm 7 mps 753 mmHg 48%
17:00 -3°C° 0 mm 6 mps 753 mmHg 50%
18:00 -3°C° 0 mm 6 mps 753 mmHg 56%
19:00 -4°C° 0 mm 6 mps 753 mmHg 61%
20:00 -4°C° 0 mm 6 mps 753 mmHg 67%
21:00 -5°C° 0 mm 5 mps 754 mmHg 69%
22:00 -5°C° 0 mm 5 mps 754 mmHg 72%
23:00 -6°C° 0 mm 5 mps 754 mmHg 74%

8 March, Monday

Time Temperature Precipitation Wind Pressure Humidity
00:00 -6°C° 0 mm 5 mps 755 mmHg 75%
01:00 -5°C° 0 mm 4 mps 755 mmHg 76%
02:00 -5°C° 0 mm 4 mps 756 mmHg 77%
03:00 -5°C° 0.1 mm 4 mps 756 mmHg 78%
04:00 -6°C° 0.1 mm 3 mps 756 mmHg 80%
05:00 -6°C° 0.1 mm 3 mps 756 mmHg 81%
06:00 -6°C° 0.1 mm 3 mps 757 mmHg 82%
07:00 -6°C° 0.1 mm 3 mps 757 mmHg 84%
08:00 -6°C° 0.1 mm 3 mps 758 mmHg 85%
09:00 -7°C° 0.1 mm 4 mps 758 mmHg 79%
10:00 -7°C° 0.1 mm 5 mps 759 mmHg 72%
11:00 -7°C° 0.1 mm 5 mps 759 mmHg 66%
12:00 -7°C° 0 mm 5 mps 760 mmHg 64%
13:00 -6°C° 0 mm 6 mps 760 mmHg 61%
14:00 -6°C° 0 mm 6 mps 761 mmHg 59%
15:00 -6°C° 0 mm 6 mps 761 mmHg 58%
16:00 -8°C° 0 mm 6 mps 762 mmHg 58%
17:00 -7°C° 0 mm 5 mps 762 mmHg 58%
18:00 -7°C° 0 mm 5 mps 762 mmHg 59%
19:00 -8°C° 0 mm 4 mps 763 mmHg 60%
20:00 -8°C° 0 mm 4 mps 764 mmHg 61%
21:00 -8°C° 0 mm 3 mps 764 mmHg 62%
22:00 -8°C° 0 mm 3 mps 765 mmHg 62%
23:00 -8°C° 0 mm 3 mps 765 mmHg 63%

9 March, Tuesday

Time Temperature Precipitation Wind Pressure Humidity
00:00 -8°C° 0 mm 2 mps 765 mmHg 64%
01:00 -8°C° 0 mm 2 mps 766 mmHg 64%
02:00 -7°C° 0 mm 1 mps 766 mmHg 65%
03:00 -7°C° 0 mm 1 mps 766 mmHg 66%
04:00 -8°C° 0 mm 1 mps 766 mmHg 67%
05:00 -8°C° 0 mm 1 mps 766 mmHg 68%
06:00 -7°C° 0 mm 1 mps 766 mmHg 67%
07:00 -7°C° 0 mm 1 mps 767 mmHg 67%
08:00 -8°C° 0 mm 2 mps 767 mmHg 67%
09:00 -7°C° 0 mm 2 mps 767 mmHg 62%
10:00 -6°C° 0 mm 2 mps 767 mmHg 57%
11:00 -6°C° 0 mm 3 mps 767 mmHg 51%
12:00 -5°C° 0 mm 3 mps 766 mmHg 49%
13:00 -4°C° 0 mm 3 mps 766 mmHg 47%
14:00 -3°C° 0 mm 4 mps 766 mmHg 45%
15:00 -3°C° 0 mm 4 mps 766 mmHg 46%
16:00 -3°C° 0 mm 4 mps 765 mmHg 47%
17:00 -3°C° 0 mm 4 mps 765 mmHg 48%
18:00 -4°C° 0 mm 4 mps 765 mmHg 53%
19:00 -5°C° 0 mm 4 mps 765 mmHg 58%
20:00 -5°C° 0 mm 4 mps 765 mmHg 63%
21:00 -5°C° 0 mm 4 mps 765 mmHg 64%
22:00 -5°C° 0 mm 4 mps 765 mmHg 65%
23:00 -5°C° 0 mm 4 mps 765 mmHg 66%

10 March, Wednesday

Time Temperature Precipitation Wind Pressure Humidity
00:00 -5°C° 0 mm 4 mps 764 mmHg 66%
01:00 -5°C° 0 mm 4 mps 764 mmHg 66%
02:00 -5°C° 0 mm 4 mps 764 mmHg 66%
03:00 -5°C° 0 mm 4 mps 763 mmHg 68%
04:00 -5°C° 0 mm 4 mps 763 mmHg 71%
05:00 -5°C° 0 mm 4 mps 762 mmHg 73%
06:00 -5°C° 0 mm 4 mps 762 mmHg 74%
07:00 -5°C° 0 mm 4 mps 762 mmHg 76%
08:00 -5°C° 0 mm 4 mps 762 mmHg 77%
09:00 -4°C° 0 mm 4 mps 762 mmHg 73%
10:00 -3°C° 0 mm 4 mps 762 mmHg 70%
11:00 -1°C° 0 mm 4 mps 762 mmHg 66%
12:00 -1°C° 0 mm 4 mps 762 mmHg 64%
13:00 0°C° 0 mm 4 mps 761 mmHg 61%
14:00 0°C° 0 mm 4 mps 761 mmHg 59%
15:00 +1°C° 0 mm 3 mps 761 mmHg 61%
16:00 +1°C° 0 mm 3 mps 760 mmHg 64%
17:00 +1°C° 0 mm 3 mps 760 mmHg 66%
18:00 0°C° 0 mm 3 mps 760 mmHg 71%
19:00 -1°C° 0 mm 2 mps 760 mmHg 76%
20:00 -2°C° 0 mm 2 mps 760 mmHg 81%
21:00 -2°C° 0 mm 3 mps 760 mmHg 84%
22:00 -4°C° 0 mm 3 mps 760 mmHg 88%
23:00 -4°C° 0 mm 3 mps 759 mmHg 91%
Show more

We Need Your Consent

Meteoprog and our Service Providers may store and access personal data such as cookies, device identifiers or other similar technologies on your device and process such data to personalise content and ads, as well as provide social media features and to analyse the traffic.

  • Store and/or access information on your device

    Cookies, device identifiers or other information can be stored or accessed on your device for the purposes indicated above.

  • Personalised ads and content, ad and content measurement, audience insights, and products development

    Ads and content can be personalised based on a profile. More data can be added to better personalise ads and content. Ad and content performance can be measured. Insights about the audience who saw the ads and content can be derived. Such data can be used to develop or improve user’s experience, systems and software.

By clicking ‘I Agree’ you will allow the use of indicated cookies, device identifiers, web beacons or other similar technologies. Your settings can be changed in the browser on your device.

For certain purposes, legitimate interests may be relied on, rather than consent. You can read more about this in our Privacy and Cookie Policy.